AO-07 1 07530U 74089B 25030.50890623 -.00000042 00000-0 30519-4 0 9995 2 07530 101.9925 33.3924 0012232 11.6130 114.2414 12.53685611297520 UO-11 1 14781U 84021B 25030.43783698 .00003433 00000-0 37413-3 0 9998 2 14781 97.7373 359.5851 0009211 54.1759 306.0313 14.88588269182274 AO-27 1 22825U 93061C 25030.14334330 .00000299 00000-0 13160-3 0 9993 2 22825 98.7573 90.9375 0009216 130.9370 229.2611 14.30718587635061 FO-29 1 24278U 96046B 25030.47684721 .00000078 00000-0 11778-3 0 9999 2 24278 98.5884 301.4083 0349406 319.7463 37.8274 13.53234644405426 NOAA-15 1 25338U 98030A 25030.80807533 .00000392 00000-0 17926-3 0 9997 2 25338 98.5495 58.9790 0010607 25.0099 335.1593 14.26870786389895 GO-32 1 25397U 98043D 25030.51844246 .00000260 00000-0 13287-3 0 9996 2 25397 98.9549 7.0359 0000917 170.0129 190.1068 14.24244329379776 ISS 1 25544U 98067A 25030.94616898 .00017245 00000-0 30159-3 0 9991 2 25544 51.6392 266.7922 0002197 150.6796 37.3757 15.50733764493879 NO-44 1 26931U 01043C 25030.49861470 .00000501 00000-0 21920-3 0 9991 2 26931 67.0508 104.1394 0006137 262.6652 97.3753 14.31602425218482 SO-50 1 27607U 02058C 25030.52470596 .00002663 00000-0 35765-3 0 9991 2 27607 64.5526 241.7711 0040499 7.6384 352.5329 14.80863023190171 CO-55 1 27844U 03031E 25030.47143452 .00000841 00000-0 38680-3 0 9993 2 27844 98.6785 40.4218 0009306 199.1656 160.9173 14.23794165120152 CO-57 1 27848U 03031J 25030.50081033 .00000703 00000-0 33063-3 0 9994 2 27848 98.6810 40.5520 0008886 216.7162 143.3409 14.23158528119862 RS-22 1 27939U 03042A 25030.78492916 .00002839 00000-0 46346-3 0 9993 2 27939 98.3114 197.2506 0012547 63.2079 50.4829 14.71679087141738 NOAA-18 1 28654U 05018A 25030.80654158 .00000411 00000-0 24153-3 0 9990 2 28654 98.8540 111.7023 0014993 135.8476 224.3896 14.13502142 15414 CO-58 1 28895U 05043F 25030.83400828 .00003812 00000-0 64230-3 0 9999 2 28895 98.2273 173.8055 0014915 1.8206 358.3051 14.70047804 28102 CO-65 1 32785U 08021C 25030.54576385 .00009358 00000-0 71978-3 0 9999 2 32785 97.7662 1.1012 0008580 300.3349 59.7026 15.01892936909542 AAUSAT2 1 32788U 08021F 25030.52891571 .00087406 00000-0 18433-2 0 9993 2 32788 97.6051 21.4807 0007596 93.4561 266.7556 15.44881790913158 CO-66 1 32791U 08021J 25030.43507712 .00018376 00000-0 10337-2 0 9993 2 32791 97.7157 8.1641 0002207 236.0914 124.0107 15.13317308910856 RS-30 1 32953U 08025A 25030.74979234 .00000042 00000-0 22899-3 0 9991 2 32953 82.5056 307.9446 0019404 331.8603 28.1427 12.43158025757403 NOAA-19 1 33591U 09005A 25030.79189945 .00000352 00000-0 21205-3 0 9990 2 33591 99.0166 94.6743 0013850 14.4172 345.7392 14.13273044823772 SRMSAT 1 37841U 11058D 25030.65262677 .00000654 00000-0 21194-3 0 9994 2 37841 19.9699 220.7532 0011808 75.9198 346.3923 14.11349704686730 ZACUBE-1 1 39417U 13066B 25030.46016112 .00008186 00000-0 75092-3 0 9990 2 39417 97.7645 348.5028 0047627 125.0435 235.5268 14.94258622605465 Delfi-N3xt 1 39428U 13066N 25030.75414934 .00012162 00000-0 13251-2 0 9995 2 39428 97.8387 310.1334 0091823 67.5732 293.5178 14.85043813599968 GOMX-1 1 39430U 13066Q 25030.84362566 .00004940 00000-0 78569-3 0 9990 2 39430 97.7003 257.3990 0133253 247.2811 111.4264 14.66664050596382 LO-74 1 39440U 13066AA 25030.58135909 .00008244 00000-0 87354-3 0 9994 2 39440 97.8375 336.3317 0062701 247.9538 111.5011 14.87919869603293 AO-73 1 39444U 13066AE 25030.60264274 .00011674 00000-0 95311-3 0 9992 2 39444 97.7486 352.6099 0043760 101.0844 259.5304 14.98812217604099 DTUSAT-2 1 40030U 14033W 25030.79934598 .00011553 00000-0 81766-3 0 9998 2 40030 98.0397 356.7679 0011261 131.6152 228.6040 15.04967293577364 EO-80 1 40032U 14033Y 25030.42798315 .00012967 00000-0 91498-3 0 9998 2 40032 98.0299 356.2112 0011443 82.8015 277.4511 15.05047833576770 XW-2C 1 40906U 15049H 25030.80894490 .00430960 75455-4 11744-2 0 9991 2 40906 97.4392 64.8982 0004250 158.1460 201.9997 15.94115119519939 LILACSAT-2 1 40908U 15049K 25030.84191891 .00015726 00000-0 47423-3 0 9995 2 40908 97.5163 48.3887 0008252 264.3279 95.7023 15.34357181518303 IO-86 1 40931U 15052B 25029.03811298 .00001879 00000-0 16388-3 0 9994 2 40931 5.9985 178.0957 0012329 44.5838 315.5281 14.78544596504930 Horyu-4 1 41340U 16012D 25030.39104433 .00028167 00000-0 97523-3 0 9992 2 41340 30.9978 282.3138 0005853 149.5177 210.5807 15.28655505492798 Lapan A3 1 41603U 16040E 25030.80386066 .00006220 00000-0 22763-3 0 9995 2 41603 97.1387 40.6197 0011960 21.9322 338.2428 15.28320230477952 CAS-2T 1 41847U 16066G 25030.48055941 .00003611 00000-0 52570-3 0 9992 2 41847 98.4352 106.0517 0348048 211.7367 146.2422 14.42817000432255 CAS-4B 1 42759U 17034B 25030.79769104 .00044458 00000-0 88934-3 0 9995 2 42759 43.0135 5.1267 0014628 108.0864 252.1589 15.45944388422409 CAS-4A 1 42761U 17034D 25030.83178816 .00047288 00000-0 93105-3 0 9997 2 42761 43.0174 2.9292 0015807 115.6729 244.5764 15.46362091422420 TechnoSat 1 42829U 17042E 25030.45185247 .00005763 00000-0 46531-3 0 9998 2 42829 97.3912 205.4774 0012988 20.6433 339.5313 15.00140542411200 AO-91 1 43017U 17073E 25030.18463097 .00016615 00000-0 90804-3 0 9994 2 43017 97.5481 264.3634 0182656 250.4430 107.6992 15.01140925389625 S-Net D 1 43186U 18014G 25030.48580646 .00010056 00000-0 63057-3 0 9993 2 43186 97.5746 294.8336 0008415 320.5839 39.4777 15.09497838382739 S-Net B 1 43187U 18014H 25030.68857679 .00009406 00000-0 59023-3 0 9994 2 43187 97.5752 294.9986 0009099 313.4349 46.6122 15.09486539382768 S-Net A 1 43188U 18014J 25030.22143959 .00010074 00000-0 63162-3 0 9996 2 43188 97.5757 294.6710 0009034 316.7233 43.3286 15.09496973382693 S-Net C 1 43189U 18014K 25030.62440443 .00009155 00000-0 57446-3 0 9995 2 43189 97.5774 295.0609 0010384 305.4057 54.6201 15.09483632381301 Ten-Koh 1 43677U 18084G 25030.45057371 .00005639 00000-0 46727-3 0 9992 2 43677 98.0814 197.5844 0012508 340.7738 19.3010 14.99212290340735 PO-101 1 43678U 18084H 25030.78763673 .00002968 00000-0 26186-3 0 9997 2 43678 98.0896 202.1256 0008897 2.5301 357.5963 14.97197844340954 QO-100 1 43700U 18090A 25030.25940396 .00000151 00000-0 00000-0 0 9997 2 43700 0.0148 77.5305 0000936 242.5235 288.8324 1.00270385 22631 MinXSS-2 1 43758U 18099A 25030.42369217 .00021119 00000-0 99533-3 0 9994 2 43758 97.5222 96.4823 0012386 251.6914 108.2973 15.19455722337167 AO-95 1 43770U 18099N 25030.57351832 .00014983 00000-0 84294-3 0 9997 2 43770 97.5130 90.3022 0010743 307.1935 52.8315 15.13306353336867 RANGE-A 1 43773U 18099R 25030.09334498 .00009322 00000-0 62625-3 0 9991 2 43773 97.4693 82.3129 0010677 281.2013 78.8014 15.06953658336555 MOVE-II 1 43780U 18099Y 25030.65469546 .00067513 00000-0 16996-2 0 9999 2 43780 97.4867 100.5110 0003787 258.6046 101.4774 15.39668468337619 SNUSat 2 1 43782U 18099AA 25030.59424536 .00010847 00000-0 64634-3 0 9995 2 43782 97.4813 88.0713 0011680 240.2523 119.7546 15.11303190336840 SnugLite 1 43784U 18099AC 25030.56412421 .00015261 00000-0 85264-3 0 9991 2 43784 97.4629 87.3985 0002655 239.9744 120.1225 15.13595536336942 ITASat 1 1 43786U 18099AE 25030.40825466 .00010570 00000-0 65101-3 0 9999 2 43786 97.4785 87.7396 0013914 298.2856 61.6969 15.10084985336794 EAGLET 1 1 43790U 18099AJ 25030.57806548 .00008052 00000-0 53934-3 0 9995 2 43790 97.4968 88.2118 0011422 276.0433 83.9493 15.07103192336479 ESEO 1 43792U 18099AL 25030.84522981 .00002911 00000-0 22813-3 0 9993 2 43792 97.4657 83.3950 0008960 229.4502 130.5944 15.01708782336344 CSIM 1 43793U 18099AM 25030.44587973 .00072526 00000-0 18308-2 0 9994 2 43793 97.5039 102.2387 0007421 232.5413 127.5158 15.39542933337420 JO-97 1 43803U 18099AX 25030.38709036 .00018003 00000-0 93736-3 0 9994 2 43803 97.4870 90.9125 0007279 235.7163 124.3381 15.16049656337012 Suomi 100 1 43804U 18099AY 25030.41913921 .00015481 00000-0 84634-3 0 9993 2 43804 97.4946 90.5417 0012273 237.4642 122.5405 15.14309257336973 ISAT 1 43879U 18111D 25030.56226739 .00026431 00000-0 11456-2 0 9998 2 43879 97.6055 302.7375 0008350 302.2072 57.8354 15.22324534331846 UWE-4 1 43880U 18111E 25030.72312496 .00021443 00000-0 10005-2 0 9991 2 43880 97.5988 302.1416 0012035 311.3439 48.6759 15.19805290331863 Sparrow 1 43881U 18111F 25030.56764701 .00027451 00000-0 11604-2 0 9995 2 43881 97.6178 305.1794 0007596 351.4025 8.7080 15.23172383331948 Prox-1 1 44339U 19036A 25030.51451924 .00016742 00000-0 23671-2 0 9994 2 44339 23.9959 193.4815 0008533 34.6469 325.4582 14.75492513298755 SONATE 1 44400U 19038Q 25030.81521986 .00067827 00000-0 94573-3 0 9994 2 44400 97.7101 44.4547 0010705 22.7202 337.4523 15.56624246309195 Taurus 1 1 44530U 19059C 25030.83547585 .00013635 00000-0 26923-2 0 9997 2 44530 98.5905 164.5050 0009565 76.5188 283.7078 14.62516293284957 Duchifat 3 1 44854U 19089C 25030.54770321 .00041873 00000-0 12883-2 0 9998 2 44854 36.9491 93.5006 0010201 195.1783 164.8664 15.32679646282893 TO-108 1 44881U 19093C 25030.88330705 .00002199 00000-0 26330-3 0 9999 2 44881 97.8062 109.2170 0012771 300.1982 59.7968 14.85067602276828 FloripaSat 1 1 44885U 19093G 25030.76937547 .00009918 00000-0 89171-3 0 9995 2 44885 97.8236 118.3165 0010302 280.0338 79.9720 14.95830180277325 RS-44 1 44909U 19096E 25030.53954744 .00000031 00000-0 85900-4 0 9992 2 44909 82.5246 313.6989 0216408 239.5431 118.4137 12.79737980238058 UPMSat 2 1 46276U 20061E 25030.63696937 .00044390 00000-0 75477-3 0 9996 2 46276 97.2652 102.2936 0001111 60.4845 299.6518 15.51309370245210 AmicalSat 1 46287U 20061R 25010.85863821 .11283921 24654-5 56408-3 0 9994 2 46287 97.2840 89.8720 0009935 281.1985 78.8199 16.41970930241877 SALSAT 1 46495U 20068K 25030.64421985 .00011993 00000-0 56749-3 0 9990 2 46495 97.8466 3.0876 0010247 248.5744 111.4397 15.19482363238777 CubeSX-Sirius-HSE 1 47951U 21022V 25030.80195519 .00068356 00000-0 12119-2 0 9995 2 47951 97.4368 297.5928 0011427 55.4070 304.8257 15.49948879213507 CubeSX-HSE 1 47952U 21022W 25030.78652274 .00073731 00000-0 12888-2 0 9995 2 47952 97.4362 297.7454 0011324 54.2205 306.0098 15.50330799213517 KSU-Cubesat 1 47954U 21022Y 25030.51816390 .00178101 00000-0 17041-2 0 9992 2 47954 97.4353 301.1138 0009529 59.2835 300.9362 15.66077602213421 GRBAlpha 1 47959U 21022AD 25030.74696466 .00071958 00000-0 12633-2 0 9996 2 47959 97.4359 297.8690 0011391 55.5509 304.6817 15.50213405212334 Orbicraft-Zorkiy 1 47960U 21022AE 25030.77639698 .00112603 00000-0 14162-2 0 9997 2 47960 97.4352 300.7425 0010105 54.3802 305.8394 15.59231352213181 TUBIN 1 48900U 21059X 25030.74754199 .00039930 00000-0 80320-3 0 9994 2 48900 97.6641 190.9212 0005298 357.2538 2.8681 15.46499853199881 LEDSAT 1 49069U 21073D 25030.47504857 .00049283 00000-0 11176-2 0 9995 2 49069 97.4073 108.3176 0013124 190.9346 169.1618 15.42831990191262 CUTE 1 49263U 21088D 25030.60088366 .00054300 00000-0 13622-2 0 9998 2 49263 97.4673 103.6019 0009325 0.8272 359.2987 15.39800869184375 TeikyoSat 4 1 49396U 21102B 25030.09484902 .00003595 00000-0 24612-3 0 9993 2 49396 97.4299 73.1734 0011679 214.4542 145.5930 15.06644600176894 Z-Sat 1 49399U 21102E 25030.90890923 .00006716 00000-0 38764-3 0 9991 2 49399 97.4006 76.3274 0018461 188.3571 171.7356 15.12512362177366 KOSEN 1 1 49402U 21102H 25030.36801171 .00010864 00000-0 54521-3 0 9991 2 49402 97.3919 78.3228 0017039 168.9183 191.2429 15.17355060177528 HO-113 1 50466U 21131B 25030.81642827 .00001420 00000-0 46028-3 0 9997 2 50466 98.5154 120.8313 0004664 154.1163 206.0260 14.40496311162765 IRIS-A 1 51044U 22002BN 25030.17072026 .00074195 00000-0 10899-2 0 9990 2 51044 97.3488 104.7016 0003690 300.0160 60.0728 15.55238873169389 Foresail-1 1 52766U 22057AL 25030.45522736 .00066285 00000-0 98192-3 0 9995 2 52766 97.5971 170.9871 0005829 25.6724 334.4818 15.55028760149463 SNUGLITE 2 1 52899U 22065F 25030.80959411 .00002799 00000-0 56063-3 0 9995 2 52899 98.1459 174.2636 0008020 153.7300 206.4310 14.62533773137513 IO-117 1 53106U 22080B 25027.56054429 -.00000003 00000-0 00000+0 0 9991 2 53106 70.1423 114.5706 0008128 54.9517 305.1905 6.42557612 59687 FO-118 1 54684U 22167C 25030.76674449 .00248474 00000-0 16561-2 0 9992 2 54684 97.6102 192.7546 0005312 348.9333 11.1813 15.74646077119454 SO-120 1 56992U 23084BU 25030.15254225 .00673615 17523-3 25377-2 0 9999 2 56992 97.5257 164.4514 0010335 294.9841 65.0356 15.87685647 91251 UmKA 1 (RS40S) 1 57172U 23091G 25030.82079270 .00009785 00000-0 55880-3 0 9990 2 57172 97.5797 86.9595 0016493 64.4493 295.8440 15.12811596 87841 CubeBel-2 (EU11S) 1 57175U 23091K 25030.80316869 .00013192 00000-0 69897-3 0 9999 2 57175 97.5795 87.4320 0014610 74.1981 286.0861 15.15433552 87870 VERONIKA 1 58261U 23174F 25030.78369882 .00058059 00000-0 13308-2 0 9994 2 58261 97.4318 112.1522 0007730 154.3261 205.8372 15.42528575 68510 KAFASAT 1 58317U 23174BP 25030.77581508 .00141062 00000-0 18003-2 0 9990 2 58317 97.4213 115.0211 0003643 125.7806 234.3789 15.58794428 68720 ENSO 1 58470U 23185J 25030.83766296 .00041618 00000-0 10286-2 0 9999 2 58470 97.3940 103.2329 0008858 185.1017 175.0141 15.40323525 64964 EIRSAT-1 1 58472U 23185L 25030.82858846 .00054031 00000-0 11841-2 0 9994 2 58472 97.3930 103.8151 0007973 186.2884 173.8265 15.43885552 65000 SONATE-2 1 59112U 24043Q 25030.77138416 .00023339 00000-0 82528-3 0 9996 2 59112 97.4966 160.1119 0011760 213.5312 146.5184 15.29112978 50450 MO-122 1 60209U 24125G 25030.54845082 .00024595 00000-0 85959-3 0 9991 2 60209 97.2942 244.0666 0020312 242.3534 117.5644 15.29348096 32034 GRBBeta 1 60237U 24128C 25030.49627010 .00007298 00000-0 58112-3 0 9990 2 60237 61.9927 172.4785 0038153 26.9013 333.4043 15.00631325 30660 Curium One 1 60242U 24128H 25030.49511315 .00011735 00000-0 89652-3 0 9990 2 60242 61.9829 172.2425 0038285 20.9777 339.2873 15.01769726 30677 ROBUSTA-3A 1 60243U 24128J 25030.52942343 .00011399 00000-0 88100-3 0 9997 2 60243 61.9898 172.5632 0036326 18.9321 341.3110 15.01409725 30671 CatSat 1 60246U 24125J 25030.16150575 .00016667 00000-0 62181-3 0 9999 2 60246 97.2732 244.1275 0045465 196.1237 163.8558 15.26489299 30068 AO-123 1 61781U 24199AY 25030.83411481 .00013444 00000-0 53410-3 0 9990 2 61781 97.3751 260.2960 0015601 301.1552 58.8156 15.25328278 57088 POEM 4 (BGS ARPIT) 1 62461U 24253C 25030.70534534 .00123531 00000-0 70225-3 0 9990 2 62461 55.2205 107.7791 0010240 10.3353 349.7904 15.78126151 4876 /EX
